EW4431 Weather Reports


Display with metric or nautical units.
time (UTC)temp
F
wind
direction
speed
MPH
gust
MPH
rain 1hr
in
rain 24hr
in
rain mn
in
humidity
%
barometer
mb
20200402063007 62 251 0.0 0.0 0.00 0.00 0.00 48 1008.0
20200402060018 62 254 0.0 0.0 0.00 0.00 0.00 51 1007.8
20200402053007 61 254 0.0 0.0 0.00 0.00 0.00 52 1007.6
20200402051503 62 254 0.0 0.0 0.00 0.00 0.00 51 1007.6
20200402050024 63 254 0.0 0.0 0.00 0.00 0.00 50 1007.5
20200402043029 64 255 0.0 0.0 0.00 0.00 0.00 47 1007.3
20200402041502 63 255 0.0 0.0 0.00 0.00 0.00 49 1007.3
20200402040003 64 255 0.0 0.0 0.00 0.00 0.00 46 1007.2
20200402033002 67 255 0.0 0.0 0.00 0.00 0.00 39 1007.1
20200402031615 69 255 0.0 0.0 0.00 0.00 0.00 35 1006.9
20200402030201 71 254 0.0 0.0 0.00 0.00 0.00 33 1006.8
20200402023018 74 253 0.0 1.0 0.00 0.00 0.00 29 1006.4
20200402021541 76 253 0.0 4.0 0.00 0.00 0.00 26 1006.3
20200402020020 77 248 0.0 1.0 0.00 0.00 0.00 25 1006.2
20200402013005 80 237 0.0 4.0 0.00 0.00 0.00 23 1006.2
20200402011514 82 259 0.0 6.0 0.00 0.00 0.00 21 1006.3
20200402010001 82 255 3.0 7.0 0.00 0.00 0.00 20 1006.3
20200402003154 83 253 1.0 8.0 0.00 0.00 0.00 19 1006.2
20200402001748 83 230 2.0 6.0 0.00 0.00 0.00 20 1006.3
20200401233020 84 63 1.0 6.0 0.00 0.00 0.00 21 1006.3
20200401231501 84 129 1.0 8.0 0.00 0.00 0.00 21 1006.3
20200401230201 85 229 1.0 4.0 0.00 0.00 0.00 20 1006.4
20200401223138 84 255 1.0 6.0 0.00 0.00 0.00 19 1006.6
20200401221625 85 311 2.0 6.0 0.00 0.00 0.00 18 1006.7
20200401220138 84 198 2.0 7.0 0.00 0.00 0.00 18 1006.7